Flag for Germany Weather past 2 weeks in Höxter, North Rhine-Westphalia, Germany

Now
61 °F

Rain. Overcast.


Feels Like: 61 °F
Forecast: 57 / 75 °F
Wind: 1 mph from South

Location: Bad Lippspringe

Current Time: Sep 19, 2014 at 3:57:09 AM

Latest Report: Sep 19, 2014 at 3:00 AM


Visibility: 2 mi

Pressure: 29.89 "Hg

Humidity: 91%

Dew point: 59 °F

Location of HöxterLocation

Historic Weather in Höxter — Graph

°F

Höxter temperature yesterday

Maximum temperature yesterday: 74 °F (at 1:00 PM)
Minimum temperature yesterday: 58 °F (at 5:00 AM)
Average temperature yesterday: 65 °F

Past Weeks' High & Low Weather Summary

 TemperatureHumidityPressure
High79 °F (Sep 6, 3:00 PM)99% (Sep 8, 4:00 AM)30.23 "Hg (Sep 8, 4:00 AM)
Low44 °F (Sep 12, 5:00 AM)45% (Sep 6, 3:00 PM)29.85 "Hg (Sep 6, 6:00 PM)
Average62 °F81%30.04 "Hg
* Reported Sep 4 2:00 AM — Sep 19 2:00 AM, Höxter, Weather by CustomWeather, © 2014

Note: Actual official high and low records may vary slightly from our data, if they occured in-between our weather recording intervals... More about our weather records

Advertising

Höxter weather history for previous 24 hours

 ConditionsComfort  
Time TempWeatherWind HumidityBarometerVisibility
2:00 AM
Sep 19
61 °FRain. Overcast.2 mph94%29.90 "Hg2 mi
1:00 AM61 °FRain. Overcast.3 mph91%29.92 "Hg2 mi
12:00 AM62 °FLight rain. Overcast.1 mph92%29.91 "Hg3 mi
11:00 PM
Sep 18
63 °FLight rain. Overcast.2 mph90%29.91 "Hg4 mi
10:00 PM63 °FLight rain. Overcast.1 mph93%29.91 "Hg2 mi
9:00 PM64 °FLight rain. Overcast.2 mph91%29.92 "Hg2 mi
8:00 PM65 °FLight rain. Overcast.2 mph86%29.89 "Hg5 mi
7:00 PM66 °FLight rain. Overcast.1 mph88%29.89 "Hg2 mi
6:00 PM66 °FLight rain. Overcast.2 mph91%29.89 "Hg3 mi
5:00 PM69 °FLight rain. Overcast.1 mph74%29.89 "Hg4 mi
4:00 PM71 °FOvercast.3 mph65%29.87 "Hg11 mi
3:00 PM72 °FPassing clouds.3 mph64%29.88 "Hg9 mi
2:00 PM74 °FSunny.5 mph55%29.87 "Hg11 mi
1:00 PM74 °FSunny.5 mph55%29.86 "Hg11 mi
12:00 PM73 °FSunny.5 mph59%29.87 "Hg10 mi
11:00 AM71 °FSunny.2 mph62%29.88 "Hg10 mi
10:00 AM68 °FSunny.2 mph68%29.88 "Hg9 mi
9:00 AM64 °FSunny.1 mph75%29.88 "Hg7 mi
8:00 AM61 °FSunny.1 mph81%29.89 "Hg7 mi
7:00 AM59 °FClear.2 mph86%29.88 "Hg6 mi
6:00 AM59 °FClear.1 mph87%29.88 "Hg6 mi
5:00 AM58 °FClear.1 mph88%29.89 "Hg6 mi
4:00 AM60 °FClear.2 mph84%29.90 "Hg7 mi
3:00 AM61 °FClear.2 mph82%29.90 "Hg7 mi
Weather by CustomWeather, © 2014

See weather overviewHow to use our weather pages